Location: ?
(35.4996°N, 139.3166°E)
Time: 14:25:07
(UTC+00:00)

Chandra Rocket (1) - Pass Details

Date: 18 April 2024
Orbit: 293 x 10894 km, 28.4° (Epoch: 19 May)

Event Time Altitude Azimuth Distance (km) Brightness Sun altitude
Exits shadow 19:16:55 14° 234° (SW) 1,368 3.2 -10.2°
Maximum altitude 19:19:21 34° 171° (S) 1,072 3.2 -9.7°
Drops below altitude 10° 19:26:04 10° 108° (ESE) 3,643 6.8 -8.4°
Sets 19:32:02 0° 102° (ESE) 6,103 8.2 -7.3°
